[[{"header":{"parameterUnit":"m.s-1","parameterCategory":1,"la1":30.2991,"la2":30.254,"lo1":-89.0895,"lo2":-89.0444,"dy":0.0017,"dx":0.0017,"nx":28,"ny":28,"refTime":"2024-06-20T21:00:00:Z","depth":0,"parameterNumber":2,"parameterNumberName":"U-component_of_WINDS"},"data":[0,0,0,0,0,0,0,0,0,0,0,0,0,0,0,0,0,0,0,0,0,0,0,0,0,0,0,0,0,0,0,0,0,0,0,0,0,0,0,0,0,0,0,0,0,0,0,0,0,0,0,0,0,0,0,0,0,0,-3.2191,-3.219,0,-3.2108,-3.2107,-3.2107,-3.1908,-3.1904,-3.19,-3.1896,-3.1816,-3.1818,-3.1819,0,0,0,0,0,0,0,0,0,0,0,0,0,-3.218,-3.2182,-3.2191,-3.219,-3.2189,-3.2109,-3.2107,-3.2106,-3.1909,-3.1904,-3.1899,-3.1894,-3.1815,-3.1818,-3.182,0,0,0,0,0,0,0,0,0,0,0,0,0,-3.2151,-3.2182,-3.2191,-3.2081,-3.207,-3.2109,-3.2107,-3.2106,-3.191,-3.1904,-3.1897,-3.1891,-3.1815,-3.1817,-3.182,-3.1961,0,0,-3.1828,-3.1829,0,0,0,0,0,0,0,0,-3.2152,-3.2151,-3.2098,-3.2088,-3.2076,-3.2012,-3.2074,-3.2058,-3.1911,-3.1971,-3.1896,-3.1888,-3.1887,-3.1883,-3.1881,-3.1957,-3.1954,-3.1828,-3.183,-3.1831,-3.1832,0,0,0,0,0,0,0,-3.2155,-3.2154,-3.2158,-3.2097,-3.2084,-3.2036,-3.2025,-3.207,-3.1965,-3.1965,-3.195,-3.1943,-3.188,-3.1879,-3.1878,-3.1953,-3.1828,-3.183,-3.1832,-3.1833,-3.2138,-3.2144,0,0,0,0,0,0,-3.2172,-3.2157,-3.2161,-3.2156,-3.21,-3.2041,-3.2029,-3.2039,-3.1964,-3.1946,-3.1949,-3.1934,-3.1878,-3.1875,-3.1874,-3.2034,-3.1831,-3.1833,-3.1835,-3.2132,-3.214,-3.2147,0,0,0,0,0,0,-3.2173,-3.2175,-3.2164,-3.2152,-3.2147,-3.2048,-3.2061,-3.2041,-3.204,-3.1951,-3.1932,-3.1968,-3.1873,-3.1871,-3.194,-3.2028,-3.1835,-3.1837,-3.2124,-3.2134,-3.2143,-3.2355,0,0,0,0,0,0,-3.2173,-3.2176,-3.2228,-3.2155,-3.2149,-3.2232,-3.2067,-3.2044,-3.2045,-3.2025,-3.1964,-3.1948,-3.1868,-3.1937,-3.1943,-3.2028,-3.1839,-3.2116,-3.2129,-3.214,-3.2339,-3.237,-3.2397,0,0,0,0,0,-3.2174,-3.2293,-3.2232,-3.2234,-3.2212,-3.2237,-3.2234,-3.2138,-3.2053,-3.2105,-3.2047,-3.195,-3.2017,-3.1946,-3.1951,-3.2038,-3.211,-3.2125,-3.2139,-3.2327,-3.2364,-3.2396,0,0,0,0,0,0,-3.2382,-3.2281,-3.2213,-3.2311,-3.2284,-3.2204,-3.2267,-3.2181,-3.2179,-3.2161,-3.2043,-3.2031,-3.2117,-3.2084,-3.2006,-3.217,-3.2048,-3.2064,-3.2189,-3.2224,-3.2252,-3.2259,-3.1841,0,0,0,0,0,-3.2439,-3.2467,-3.2377,-3.2473,-3.2463,-3.2368,-3.2375,-3.2303,-3.2271,-3.2259,-3.2206,-3.218,-3.2194,-3.2207,-3.2216,-3.2333,-3.2316,-3.2395,-3.2424,-3.2448,-3.2464,-3.2523,-3.2556,-3.2195,-3.2195,-3.2194,0,0,-3.2558,-3.2506,-3.2532,-3.2514,-3.2484,-3.2516,-3.2359,-3.24,-3.2423,-3.2265,-3.2327,-3.2288,-3.225,-3.2344,-3.2382,-3.2319,-3.256,-3.2467,-3.2487,-3.2489,-3.2541,-3.2576,-3.2606,-3.2205,-3.2203,-3.2201,0,0,-3.2791,-3.2755,-3.2829,-3.2802,-3.2758,-3.2693,-3.2711,-3.2643,-3.261,-3.267,-3.2551,-3.2577,-3.2605,-3.2583,-3.2575,-3.2797,-3.2707,-3.2803,-3.2954,-3.3013,-3.3041,-3.3066,-3.3145,-3.3175,-3.2819,-3.2819,-3.2819,0,-3.2945,-3.2988,-3.2879,-3.2927,-3.2923,-3.2778,-3.2853,-3.2832,-3.2795,-3.2796,-3.2724,-3.2755,-3.272,-3.2805,-3.2859,-3.2858,-3.2875,-3.281,-3.3045,-3.3069,-3.309,-3.3165,-3.3195,-3.2831,-3.283,-3.2828,-3.2827,0,-3.3179,-3.321,-3.3276,-3.324,-3.3243,-3.3305,-3.3206,-3.3222,-3.3149,-3.3092,-3.3154,-3.3106,-3.3102,-3.3116,-3.3047,-3.3192,-3.3154,-3.3066,-3.2941,-3.3139,-3.3206,-3.3234,-3.2848,-3.2844,-3.284,-3.2837,0,0,-3.3544,-3.3445,-3.3471,-3.3453,-3.3392,-3.3414,-3.3469,-3.3462,-3.3478,-3.3456,-3.3499,-3.3525,-3.3442,-3.3434,-3.336,-3.3411,-3.3589,-3.3316,-3.3313,-3.3369,-3.3746,-3.3814,-3.3848,-3.3528,-3.3533,-3.3537,-3.3749,0,-3.3764,-3.385,-3.3752,-3.386,-3.3887,-3.3748,-3.3795,-3.3764,-3.3711,-3.3727,-3.3669,-3.3689,-3.3578,-3.3572,-3.3616,-3.3558,-3.3663,-3.3541,-3.3568,-3.3571,-3.3583,-3.3883,-3.3955,-3.4158,-3.3775,-3.3779,-3.3782,0,-3.4032,-3.402,-3.4129,-3.4059,-3.4066,-3.4111,-3.4096,-3.4113,-3.4073,-3.4031,-3.4021,-3.393,-3.3979,-3.3856,-3.3922,-3.3841,-3.3846,-3.3819,-3.3824,-3.3824,-3.369,-3.3893,-3.422,-3.4252,-3.3823,-3.382,-3.3817,0,-3.4288,-3.4299,-3.4365,-3.4353,-3.4273,-3.4307,-3.4276,-3.423,-3.4231,-3.4219,-3.4219,-3.4213,-3.4211,-3.4208,-3.4119,-3.4038,-3.4196,-3.4066,-3.4163,-3.4166,-3.4205,-3.4204,-3.4539,-3.4207,-3.4206,-3.4206,-3.4205,0,-3.4543,-3.4616,-3.4478,-3.452,-3.4596,-3.4483,-3.4563,-3.4517,-3.4477,-3.4507,-3.4387,-3.4418,-3.4297,-3.4316,-3.4246,-3.4311,-3.4311,-3.4279,-3.426,-3.429,-3.4295,-3.4293,-3.4277,-3.4213,-3.4212,-3.421,-3.4209,0,-3.4843,-3.4754,-3.4817,-3.4734,-3.4715,-3.4776,-3.4705,-3.474,-3.4678,-3.4718,-3.4721,-3.4625,-3.464,-3.4549,-3.4549,-3.4502,-3.4602,-3.4558,-3.4615,-3.4602,-3.4705,-3.4697,-3.5052,-3.5093,-3.4734,-3.4738,-3.4741,0,-3.5013,-3.5065,-3.4987,-3.4998,-3.4972,-3.4991,-3.499,-3.4881,-3.4886,-3.4844,-3.4884,-3.4888,-3.4886,-3.4917,-3.4848,-3.4847,-3.4803,-3.4927,-3.4802,-3.483,-3.4805,-3.4804,-3.4808,-3.4954,-3.4959,-3.4962,-3.4965,0,-3.5324,-3.5276,-3.528,-3.5269,-3.5271,-3.5258,-3.5236,-3.5252,-3.5132,-3.5144,-3.5157,-3.5155,-3.5153,-3.5159,-3.5143,-3.5111,-3.502,-3.5004,-3.5027,-3.506,-3.5091,-3.5076,-3.4687,-3.4998,-3.4994,-3.4992,-3.499,-3.4989,-3.5564,-3.5603,-3.5554,-3.5562,-3.5533,-3.5515,-3.5543,-3.5483,-3.5491,-3.5479,-3.5414,-3.5439,-3.5396,-3.5364,-3.5341,-3.5359,-3.53,-3.5333,-3.5341,-3.5351,-3.537,-3.5087,-3.5356,-3.5355,-3.5354,-3.5353,-3.5352,0,-3.5869,-3.583,-3.5838,-3.5809,-3.5816,-3.5725,-3.5695,-3.5707,-3.573,-3.5697,-3.5696,-3.571,-3.5715,-3.5645,-3.5641,-3.5669,-3.5627,-3.5672,-3.5669,-3.5663,-3.5423,-3.5404,-3.5706,-3.5706,-3.5706,-3.5706,-3.5706,-3.5706,-3.6029,-3.609,-3.6036,-3.6081,-3.6041,-3.6062,-3.6053,-3.6036,-3.6008,-3.6029,-3.6031,-3.5984,-3.5937,-3.5927,-3.5928,-3.5907,-3.5912,-3.5972,-3.5937,-3.5715,-3.568,-3.5648,-3.5629,-3.5973,-3.5974,-3.6175,-3.6177,-3.6179]},{"header":{"parameterUnit":"m.s-1","parameterCategory":1,"la1":30.2991,"la2":30.254,"lo1":-89.0895,"lo2":-89.0444,"dy":0.0017,"dx":0.0017,"nx":28,"ny":28,"refTime":"2024-06-20T21:00:00:Z","depth":0,"parameterNumber":3,"parameterNumberName":"V-component_of_WINDS"},"data":[0,0,0,0,0,0,0,0,0,0,0,0,0,0,0,0,0,0,0,0,0,0,0,0,0,0,0,0,0,0,0,0,0,0,0,0,0,0,0,0,0,0,0,0,0,0,0,0,0,0,0,0,0,0,0,0,0,0,-1.3644,-1.3645,0,-1.3767,-1.3768,-1.377,-1.3852,-1.3853,-1.3853,-1.3854,-1.3976,-1.3979,-1.3982,0,0,0,0,0,0,0,0,0,0,0,0,0,-1.3476,-1.3478,-1.3644,-1.3645,-1.3647,-1.3767,-1.3768,-1.377,-1.3852,-1.3853,-1.3854,-1.3854,-1.3975,-1.3978,-1.3982,0,0,0,0,0,0,0,0,0,0,0,0,0,-1.3569,-1.3479,-1.3643,-1.3702,-1.3709,-1.3766,-1.3769,-1.3771,-1.3852,-1.3853,-1.3854,-1.3855,-1.3974,-1.3978,-1.3982,-1.399,0,0,-1.3995,-1.3996,0,0,0,0,0,0,0,0,-1.3563,-1.3575,-1.3692,-1.3698,-1.3706,-1.3795,-1.3754,-1.3844,-1.3852,-1.3798,-1.3854,-1.3855,-1.3915,-1.3924,-1.3945,-1.3996,-1.4001,-1.3995,-1.3997,-1.3999,-1.4,0,0,0,0,0,0,0,-1.3557,-1.357,-1.3692,-1.3694,-1.3702,-1.3721,-1.3735,-1.3772,-1.385,-1.3802,-1.3809,-1.3822,-1.3919,-1.3941,-1.3949,-1.4003,-1.3995,-1.3998,-1.4001,-1.4003,-1.4065,-1.4064,0,0,0,0,0,0,-1.3541,-1.3564,-1.3689,-1.3696,-1.3635,-1.3724,-1.374,-1.3766,-1.385,-1.3863,-1.3821,-1.3826,-1.3934,-1.3944,-1.3953,-1.3967,-1.3999,-1.4003,-1.4005,-1.4065,-1.4065,-1.4064,0,0,0,0,0,0,-1.3538,-1.3552,-1.3684,-1.3632,-1.365,-1.3726,-1.3754,-1.3768,-1.379,-1.3864,-1.3878,-1.383,-1.3935,-1.3947,-1.398,-1.3972,-1.4005,-1.4008,-1.4066,-1.4065,-1.4064,-1.3994,0,0,0,0,0,0,-1.3532,-1.355,-1.3554,-1.3631,-1.3653,-1.3709,-1.3754,-1.3769,-1.3797,-1.3804,-1.3876,-1.3888,-1.3936,-1.3974,-1.3984,-1.3978,-1.4012,-1.4067,-1.4066,-1.4064,-1.3998,-1.3991,-1.3985,0,0,0,0,0,-1.3526,-1.3529,-1.3554,-1.3569,-1.366,-1.3709,-1.3721,-1.3777,-1.3796,-1.3801,-1.3848,-1.3886,-1.3972,-1.3976,-1.3989,-1.3984,-1.4068,-1.4066,-1.4065,-1.4001,-1.3992,-1.3985,0,0,0,0,0,0,-1.3448,-1.354,-1.3569,-1.3597,-1.3645,-1.3723,-1.373,-1.3767,-1.3808,-1.3813,-1.388,-1.3895,-1.3921,-1.3956,-1.396,-1.3996,-1.4024,-1.4025,-1.3971,-1.3964,-1.3958,-1.3948,-1.4015,0,0,0,0,0,-1.3434,-1.3467,-1.3546,-1.3563,-1.3586,-1.3653,-1.3677,-1.3716,-1.3767,-1.3787,-1.3838,-1.3885,-1.3922,-1.3946,-1.3984,-1.4004,-1.402,-1.4007,-1.4001,-1.3995,-1.3994,-1.4006,-1.4001,-1.4058,-1.4058,-1.4058,0,0,-1.3405,-1.346,-1.3477,-1.3549,-1.359,-1.3622,-1.367,-1.3701,-1.3725,-1.3792,-1.3826,-1.3864,-1.3921,-1.3947,-1.3961,-1.3977,-1.3982,-1.3993,-1.3988,-1.399,-1.4004,-1.3998,-1.3993,-1.4057,-1.4057,-1.4057,0,0,-1.3369,-1.3415,-1.3434,-1.3475,-1.3537,-1.3582,-1.3587,-1.3659,-1.3688,-1.3724,-1.3774,-1.3803,-1.3867,-1.3905,-1.3933,-1.3911,-1.3947,-1.3922,-1.3889,-1.3899,-1.3895,-1.3891,-1.3882,-1.3878,-1.3921,-1.3921,-1.3921,0,-1.3325,-1.3376,-1.3439,-1.3467,-1.3497,-1.3561,-1.358,-1.3616,-1.3687,-1.3705,-1.3723,-1.3804,-1.3847,-1.3882,-1.3877,-1.3898,-1.3904,-1.3913,-1.3891,-1.3888,-1.3885,-1.3877,-1.3874,-1.3918,-1.3918,-1.3918,-1.3919,0,-1.3318,-1.3353,-1.3361,-1.3429,-1.346,-1.3483,-1.3548,-1.3571,-1.3608,-1.3651,-1.3686,-1.374,-1.379,-1.3802,-1.3838,-1.3842,-1.385,-1.3879,-1.3908,-1.3875,-1.3869,-1.3866,-1.3913,-1.3914,-1.3915,-1.3916,0,0,-1.3235,-1.3338,-1.334,-1.3372,-1.3446,-1.3473,-1.3499,-1.3549,-1.3567,-1.3615,-1.3637,-1.369,-1.3717,-1.3748,-1.3789,-1.3799,-1.3777,-1.3826,-1.3828,-1.3813,-1.3783,-1.376,-1.3756,-1.3802,-1.3801,-1.3801,-1.3778,0,-1.3209,-1.326,-1.3317,-1.3348,-1.3379,-1.3441,-1.3464,-1.3511,-1.3551,-1.3583,-1.3629,-1.3664,-1.3698,-1.3717,-1.373,-1.3776,-1.3771,-1.3779,-1.3821,-1.3822,-1.3803,-1.3753,-1.3728,-1.3704,-1.3776,-1.3776,-1.3775,0,-1.3185,-1.323,-1.3264,-1.3335,-1.335,-1.337,-1.342,-1.3451,-1.3505,-1.3534,-1.3569,-1.3614,-1.3643,-1.367,-1.3711,-1.3715,-1.3736,-1.3762,-1.3762,-1.3766,-1.3795,-1.3754,-1.3697,-1.3693,-1.3772,-1.3773,-1.3773,0,-1.3118,-1.3188,-1.3217,-1.3242,-1.3326,-1.3338,-1.3373,-1.3429,-1.3455,-1.35,-1.3517,-1.3564,-1.3589,-1.3623,-1.3678,-1.3694,-1.3712,-1.3745,-1.3736,-1.3734,-1.3735,-1.3734,-1.3679,-1.3751,-1.3751,-1.3751,-1.3752,0,-1.3082,-1.3099,-1.3188,-1.3206,-1.3228,-1.3293,-1.3312,-1.3353,-1.3402,-1.3427,-1.3484,-1.3506,-1.3579,-1.3609,-1.3653,-1.3679,-1.369,-1.3713,-1.3724,-1.3707,-1.3704,-1.372,-1.3722,-1.3751,-1.3751,-1.3751,-1.3751,0,-1.301,-1.307,-1.3106,-1.3183,-1.3203,-1.3215,-1.3281,-1.33,-1.3344,-1.3376,-1.3387,-1.3457,-1.3496,-1.3555,-1.3612,-1.3641,-1.366,-1.3679,-1.3641,-1.3647,-1.3634,-1.3634,-1.3587,-1.3583,-1.3659,-1.3658,-1.3657,0,-1.2982,-1.2997,-1.3076,-1.3098,-1.3132,-1.3166,-1.3194,-1.3259,-1.3286,-1.3349,-1.336,-1.3404,-1.3442,-1.3502,-1.3557,-1.3601,-1.362,-1.36,-1.3627,-1.3609,-1.3617,-1.3615,-1.3616,-1.3593,-1.3592,-1.3591,-1.359,0,-1.2924,-1.2954,-1.2993,-1.3042,-1.3074,-1.3115,-1.3159,-1.3174,-1.3248,-1.3275,-1.3316,-1.3346,-1.3405,-1.3447,-1.3498,-1.3534,-1.3573,-1.3582,-1.3582,-1.3564,-1.3541,-1.3551,-1.3622,-1.3582,-1.3583,-1.3584,-1.3584,-1.3584,-1.2873,-1.2889,-1.2947,-1.2988,-1.3029,-1.3069,-1.309,-1.3138,-1.3174,-1.3228,-1.3264,-1.3303,-1.3357,-1.343,-1.3463,-1.3494,-1.3511,-1.3511,-1.3511,-1.3509,-1.3503,-1.3538,-1.3504,-1.3504,-1.3504,-1.3505,-1.3505,0,-1.2817,-1.2858,-1.2895,-1.2956,-1.2987,-1.3025,-1.3076,-1.3099,-1.3133,-1.3181,-1.3218,-1.3265,-1.3307,-1.3366,-1.3411,-1.3425,-1.3444,-1.3434,-1.3433,-1.344,-1.3486,-1.348,-1.3418,-1.3418,-1.3418,-1.3418,-1.3418,-1.3418,-1.2791,-1.2821,-1.2857,-1.2906,-1.2947,-1.2987,-1.3012,-1.3049,-1.3087,-1.3138,-1.3173,-1.3212,-1.3264,-1.3314,-1.3353,-1.3369,-1.3383,-1.3367,-1.3388,-1.3429,-1.3437,-1.3444,-1.344,-1.337,-1.3369,-1.334,-1.3339,-1.3339]}]]